TimeCDT,TemperatureF,Dew PointF,Humidity,Sea Level PressureIn,VisibilityMPH,Wind Direction,Wind SpeedMPH,Gust SpeedMPH,PrecipitationIn,Events,Conditions,WindDirDegrees,DateUTC
12:52 AM,63.0,61.0,93,29.96,3.0,Calm,Calm,-,N/A,,Clear,0,2013-10-05 05:52:00
1:42 AM,64.4,62.6,94,29.95,2.5,Calm,Calm,-,N/A,,Clear,0,2013-10-05 06:42:00
1:49 AM,64.4,62.6,94,29.95,1.0,Calm,Calm,-,N/A,,Clear,0,2013-10-05 06:49:00
1:52 AM,64.0,61.0,90,29.94,0.8,Calm,Calm,-,N/A,,Mist,0,2013-10-05 06:52:00
2:12 AM,64.4,62.6,94,29.95,0.2,Calm,Calm,-,N/A,Fog,Fog,0,2013-10-05 07:12:00
2:52 AM,63.0,61.0,93,29.94,1.8,Calm,Calm,-,N/A,,Scattered Clouds,0,2013-10-05 07:52:00
2:59 AM,62.6,60.8,94,29.94,2.5,Calm,Calm,-,N/A,,Partly Cloudy,0,2013-10-05 07:59:00
3:24 AM,62.6,60.8,94,29.94,3.0,Calm,Calm,-,N/A,,Clear,0,2013-10-05 08:24:00
3:41 AM,62.6,59.0,88,29.94,1.8,Calm,Calm,-,N/A,,Clear,0,2013-10-05 08:41:00
3:52 AM,61.0,59.0,93,29.93,1.8,Calm,Calm,-,N/A,,Clear,0,2013-10-05 08:52:00
4:05 AM,62.6,59.0,88,29.93,3.0,Calm,Calm,-,N/A,,Clear,0,2013-10-05 09:05:00
4:52 AM,63.0,60.1,90,29.93,4.0,Calm,Calm,-,N/A,,Clear,0,2013-10-05 09:52:00
5:52 AM,63.0,60.1,90,29.93,5.0,Calm,Calm,-,N/A,,Partly Cloudy,0,2013-10-05 10:52:00
6:52 AM,66.9,64.0,90,29.92,2.5,SSE,3.5,-,N/A,,Mostly Cloudy,160,2013-10-05 11:52:00
7:37 AM,69.8,66.2,88,29.92,2.5,South,3.5,-,N/A,,Scattered Clouds,170,2013-10-05 12:37:00
7:47 AM,69.8,66.2,88,29.93,2.5,South,5.8,-,N/A,,Mostly Cloudy,180,2013-10-05 12:47:00
7:52 AM,70.0,66.9,90,29.92,4.0,South,5.8,-,N/A,,Mostly Cloudy,190,2013-10-05 12:52:00
8:52 AM,72.0,68.0,87,29.91,4.0,South,5.8,-,0.00,,Overcast,190,2013-10-05 13:52:00
9:52 AM,73.9,69.1,85,29.92,6.0,SSW,4.6,-,N/A,,Haze,210,2013-10-05 14:52:00
10:52 AM,75.9,69.1,79,29.91,7.0,SSW,9.2,-,N/A,,Overcast,200,2013-10-05 15:52:00
11:52 AM,78.1,69.1,74,29.90,7.0,SSW,10.4,-,N/A,,Overcast,210,2013-10-05 16:52:00
12:22 PM,78.8,69.8,74,29.90,7.0,South,6.9,-,N/A,,Overcast,180,2013-10-05 17:22:00
12:52 PM,78.1,69.1,74,29.88,8.0,SSW,9.2,-,N/A,,Overcast,200,2013-10-05 17:52:00
1:52 PM,79.0,69.1,72,29.85,8.0,South,9.2,-,N/A,,Overcast,170,2013-10-05 18:52:00
2:16 PM,80.6,69.8,70,29.84,9.0,South,4.6,-,N/A,,Scattered Clouds,190,2013-10-05 19:16:00
2:43 PM,80.6,68.0,65,29.82,9.0,SSE,6.9,-,N/A,,Mostly Cloudy,160,2013-10-05 19:43:00
2:52 PM,80.1,68.0,67,29.82,9.0,South,6.9,-,N/A,,Mostly Cloudy,170,2013-10-05 19:52:00
3:52 PM,80.1,68.0,67,29.78,7.0,East,3.5,-,N/A,,Partly Cloudy,100,2013-10-05 20:52:00
3:59 PM,78.8,69.8,74,29.78,7.0,East,8.1,-,0.00,Rain-Thunderstorm,Light Thunderstorms and Rain,100,2013-10-05 20:59:00
4:22 PM,75.2,69.8,83,29.80,2.5,SE,15.0,20.7,0.06,Thunderstorm,Unknown,140,2013-10-05 21:22:00
4:25 PM,73.4,68.0,83,29.82,0.8,South,21.9,29.9,0.19,Rain-Thunderstorm,Heavy Thunderstorms and Rain,170,2013-10-05 21:25:00
4:37 PM,69.8,66.2,88,29.86,0.2,SSE,17.3,25.3,0.72,Fog-Rain-Thunderstorm,Heavy Thunderstorms and Rain,160,2013-10-05 21:37:00
4:52 PM,69.1,66.0,90,29.84,0.8,South,10.4,25.3,1.25,Rain-Thunderstorm,Thunderstorms and Rain,170,2013-10-05 21:52:00
4:54 PM,68.0,66.2,94,29.84,1.2,SSE,10.4,20.7,0.00,Rain-Thunderstorm,Light Thunderstorms and Rain,160,2013-10-05 21:54:00
4:57 PM,69.8,66.2,88,29.83,3.0,SE,8.1,-,0.00,Rain-Thunderstorm,Light Thunderstorms and Rain,140,2013-10-05 21:57:00
5:02 PM,69.8,66.2,88,29.82,10.0,SE,4.6,-,0.00,Rain-Thunderstorm,Light Thunderstorms and Rain,130,2013-10-05 22:02:00
5:31 PM,69.8,66.2,88,29.81,9.0,South,5.8,-,0.00,Rain-Thunderstorm,Light Rain,190,2013-10-05 22:31:00
5:47 PM,69.8,64.4,83,29.83,2.5,South,8.1,-,0.06,Rain,Rain,180,2013-10-05 22:47:00
5:52 PM,69.1,64.9,87,29.83,2.5,Variable,6.9,-,0.06,Rain,Light Rain,0,2013-10-05 22:52:00
6:00 PM,69.8,64.4,83,29.84,10.0,NW,8.1,-,0.00,,Overcast,320,2013-10-05 23:00:00
6:06 PM,69.8,64.4,83,29.83,10.0,Calm,Calm,-,0.00,,Overcast,0,2013-10-05 23:06:00
6:22 PM,69.8,64.4,83,29.82,10.0,Calm,Calm,-,0.00,,Overcast,0,2013-10-05 23:22:00
6:52 PM,69.1,66.0,90,29.81,10.0,Calm,Calm,-,0.00,,Mostly Cloudy,0,2013-10-05 23:52:00
7:52 PM,69.1,66.0,90,29.79,9.0,Calm,Calm,-,N/A,,Clear,0,2013-10-06 00:52:00
8:29 PM,69.8,66.2,88,29.82,6.0,Calm,Calm,-,N/A,,Scattered Clouds,0,2013-10-06 01:29:00
8:52 PM,69.1,66.9,93,29.81,6.0,Calm,Calm,-,N/A,,Overcast,0,2013-10-06 01:52:00
9:52 PM,70.0,66.9,90,29.80,9.0,South,8.1,-,N/A,,Overcast,190,2013-10-06 02:52:00
10:08 PM,69.8,66.2,88,29.80,8.0,South,5.8,-,N/A,,Mostly Cloudy,170,2013-10-06 03:08:00
10:30 PM,69.8,66.2,88,29.80,7.0,South,6.9,-,N/A,,Mostly Cloudy,180,2013-10-06 03:30:00
10:52 PM,70.0,66.0,87,29.78,9.0,SSW,5.8,-,N/A,,Mostly Cloudy,210,2013-10-06 03:52:00
11:25 PM,68.0,64.4,88,29.77,10.0,West,3.5,-,N/A,,Overcast,270,2013-10-06 04:25:00
11:52 PM,68.0,63.0,84,29.77,10.0,Variable,3.5,-,N/A,,Mostly Cloudy,0,2013-10-06 04:52:00